This is the latest recevied weather packets stored in our database for station/object KA3RQR. If no packets are shown the sender has not sent any weather packets the latest 10 day(s).
| Time | Temp. | Humidity | Pressure | Rain* | Wind** | Luminosity | Snow |
|---|---|---|---|---|---|---|---|
| 1778104602 | 20.56° C | 83% | 1008.3 hPa | 0 mm | - | 116 W/m² | - |
| 1778104297 | 20.56° C | 82% | 1008.5 hPa | 0 mm | - | 108 W/m² | - |
| 1778103994 | 21.11° C | 82% | 1008.3 hPa | 0 mm | - | 111 W/m² | - |
| 1778103692 | 20.56° C | 82% | 1008.2 hPa | 0 mm | - | 137 W/m² | - |
| 1778103390 | 21.11° C | 81% | 1008.2 hPa | 0 mm | - | 185 W/m² | - |
| 1778103087 | 21.11° C | 82% | 1008.3 hPa | 0 mm | - | 178 W/m² | - |
| 1778102784 | 20.56° C | 82% | 1008.3 hPa | 0 mm | - | 216 W/m² | - |
| 1778102479 | 20.56° C | 83% | 1008.2 hPa | 0 mm | - | 179 W/m² | - |
| 1778102175 | 20.56° C | 83% | 1008.5 hPa | 0 mm | - | 136 W/m² | - |
| 1778101872 | 20.56° C | 82% | 1008.3 hPa | 0 mm | - | 91 W/m² | - |
| 1778101569 | 20.56° C | 82% | 1008.2 hPa | 0 mm | - | 134 W/m² | - |
| 1778101265 | 20.56° C | 81% | 1008.1 hPa | 0 mm | - | 193 W/m² | - |
| 1778100962 | 21.11° C | 82% | 1008.1 hPa | 0 mm | - | 231 W/m² | - |
| 1778100657 | 20.56° C | 83% | 1008 hPa | 0 mm | - | 295 W/m² | - |
| 1778100355 | 20.56° C | 82% | 1007.9 hPa | 0 mm | - | 219 W/m² | - |
| 1778100052 | 20.56° C | 82% | 1008 hPa | 0 mm | - | 171 W/m² | - |
| 1778099750 | 20.56° C | 82% | 1008.1 hPa | 0 mm | - | 216 W/m² | - |
| 1778099447 | 20.56° C | 83% | 1007.8 hPa | 0 mm | - | 207 W/m² | - |
| 1778099144 | 20.56° C | 81% | 1008 hPa | 0 mm | - | 260 W/m² | - |
| 1778098840 | 21.11° C | 82% | 1007.9 hPa | 0 mm | - | 228 W/m² | - |
| 1778098538 | 20.56° C | 83% | 1007.8 hPa | 0 mm | - | 307 W/m² | - |
| 1778098235 | 20° C | 84% | 1007.9 hPa | 0 mm | - | 355 W/m² | - |
| 1778097931 | 20° C | 84% | 1008.2 hPa | 0 mm | - | 142 W/m² | - |
| 1778097628 | 20° C | 83% | 1008 hPa | 0 mm | - | 147 W/m² | - |
| 1778097324 | 20° C | 83% | 1008.1 hPa | 0 mm | - | 165 W/m² | - |
* Rain latest hour (hover to see other rain measurements)
** Current wind speed in m/s (hover to see current wind gust speed)